www.cux-wetter.de
Wetterdaten: Dienstag, 08.07.2008
Datum Zeit Temp. A. Feuchte A. Luftdruck Regen Wind Richtung Richtung Sonnenschein Solar Taupunkt Windchill Windben
08.07.2008 00:00 14,2 C 87 % 1000,5 hPa 0,0 l/m 16,1 km/h (3 Bft) S 185 0 min 0 W/m 12,1 C 9,9 C 16,1 km/h (3 Bft)
08.07.2008 00:05 14,2 C 87 % 1000,5 hPa 0,0 l/m 13,5 km/h (3 Bft) S 180 0 min 0 W/m 12,1 C 10,8 C 13,5 km/h (3 Bft)
08.07.2008 00:10 14,2 C 88 % 1000,5 hPa 0,0 l/m 15,7 km/h (3 Bft) S 185 0 min 0 W/m 12,2 C 10,0 C 15,7 km/h (3 Bft)
08.07.2008 00:15 14,2 C 88 % 1000,5 hPa 0,0 l/m 13,6 km/h (3 Bft) S-SW 195 0 min 0 W/m 12,2 C 10,7 C 13,6 km/h (3 Bft)
08.07.2008 00:20 14,2 C 88 % 1000,5 hPa 0,0 l/m 14,9 km/h (3 Bft) S 185 0 min 0 W/m 12,2 C 10,3 C 14,9 km/h (3 Bft)
08.07.2008 00:25 14,3 C 88 % 1000,5 hPa 0,0 l/m 12,0 km/h (2 Bft) S 190 0 min 0 W/m 12,3 C 11,5 C 12,0 km/h (2 Bft)
08.07.2008 00:30 14,3 C 88 % 1000,5 hPa 0,0 l/m 14,7 km/h (3 Bft) S-SW 195 0 min 0 W/m 12,3 C 10,4 C 14,7 km/h (3 Bft)
08.07.2008 00:35 14,4 C 88 % 1000,5 hPa 0,0 l/m 12,7 km/h (3 Bft) S-SW 200 0 min 0 W/m 12,4 C 11,3 C 12,7 km/h (3 Bft)
08.07.2008 00:40 14,4 C 88 % 1000,5 hPa 0,0 l/m 14,7 km/h (3 Bft) S-SW 200 0 min 0 W/m 12,4 C 10,6 C 14,7 km/h (3 Bft)
08.07.2008 00:45 14,4 C 88 % 1000,5 hPa 0,0 l/m 15,0 km/h (3 Bft) S-SW 195 0 min 0 W/m 12,4 C 10,5 C 15,0 km/h (3 Bft)
08.07.2008 00:50 14,4 C 88 % 1000,5 hPa 0,0 l/m 12,9 km/h (3 Bft) S 185 0 min 0 W/m 12,4 C 11,2 C 12,9 km/h (3 Bft)
08.07.2008 00:55 14,4 C 88 % 1000,5 hPa 0,0 l/m 12,6 km/h (3 Bft) S 180 0 min 0 W/m 12,4 C 11,3 C 12,6 km/h (3 Bft)
08.07.2008 01:00 14,5 C 88 % 999,5 hPa 0,0 l/m 14,3 km/h (3 Bft) S 190 0 min 0 W/m 12,5 C 10,8 C 14,3 km/h (3 Bft)
08.07.2008 01:05 14,4 C 88 % 999,5 hPa 0,0 l/m 15,6 km/h (3 Bft) S 185 0 min 0 W/m 12,4 C 10,3 C 15,6 km/h (3 Bft)
08.07.2008 01:10 14,4 C 88 % 1000,5 hPa 0,0 l/m 16,0 km/h (3 Bft) S-SW 195 0 min 0 W/m 12,4 C 10,1 C 16,0 km/h (3 Bft)
08.07.2008 01:15 14,4 C 88 % 1000,5 hPa 0,0 l/m 15,9 km/h (3 Bft) S-SW 205 0 min 0 W/m 12,4 C 10,2 C 15,9 km/h (3 Bft)
08.07.2008 01:20 14,4 C 88 % 1000,5 hPa 0,0 l/m 11,4 km/h (2 Bft) S-SW 205 0 min 0 W/m 12,4 C 11,8 C 11,4 km/h (2 Bft)
08.07.2008 01:25 14,5 C 88 % 999,5 hPa 0,3 l/m 18,6 km/h (3 Bft) S-SW 205 0 min 0 W/m 12,5 C 9,5 C 18,6 km/h (3 Bft)
08.07.2008 01:30 14,6 C 89 % 999,5 hPa 0,0 l/m 18,8 km/h (3 Bft) SW 215 0 min 0 W/m 12,8 C 9,6 C 18,8 km/h (3 Bft)
08.07.2008 01:35 14,6 C 89 % 999,5 hPa 0,0 l/m 18,0 km/h (3 Bft) SW 220 0 min 0 W/m 12,8 C 9,8 C 18,0 km/h (3 Bft)
08.07.2008 01:40 14,6 C 89 % 999,5 hPa 0,3 l/m 17,1 km/h (3 Bft) SW 230 0 min 0 W/m 12,8 C 10,0 C 17,1 km/h (3 Bft)
08.07.2008 01:45 14,6 C 89 % 999,5 hPa 0,0 l/m 17,1 km/h (3 Bft) SW 220 0 min 0 W/m 12,8 C 10,0 C 17,1 km/h (3 Bft)
08.07.2008 01:50 14,6 C 89 % 999,5 hPa 0,0 l/m 11,9 km/h (2 Bft) S-SW 205 0 min 0 W/m 12,8 C 11,9 C 11,9 km/h (2 Bft)
08.07.2008 01:55 14,6 C 89 % 999,5 hPa 0,0 l/m 16,1 km/h (3 Bft) SW 215 0 min 0 W/m 12,8 C 10,3 C 16,1 km/h (3 Bft)
08.07.2008 02:00 14,7 C 89 % 999,5 hPa 0,0 l/m 22,1 km/h (4 Bft) S-SW 210 0 min 0 W/m 12,9 C 8,8 C 22,1 km/h (4 Bft)
08.07.2008 02:05 14,8 C 89 % 999,5 hPa 0,0 l/m 16,5 km/h (3 Bft) SW 220 0 min 0 W/m 13,0 C 10,5 C 16,5 km/h (3 Bft)
08.07.2008 02:09 14,7 C 89 % 999,5 hPa 0,0 l/m 13,4 km/h (3 Bft) SW 220 0 min 0 W/m 12,9 C 11,4 C 13,4 km/h (3 Bft)
08.07.2008 02:15 14,7 C 89 % 999,5 hPa 0,0 l/m 17,2 km/h (3 Bft) SW 220 0 min 0 W/m 12,9 C 10,1 C 17,2 km/h (3 Bft)
08.07.2008 02:20 14,6 C 89 % 999,5 hPa 0,0 l/m 18,3 km/h (3 Bft) W-SW 250 0 min 0 W/m 12,8 C 9,7 C 18,3 km/h (3 Bft)
08.07.2008 02:25 14,7 C 90 % 999,5 hPa 0,0 l/m 17,4 km/h (3 Bft) W-SW 255 0 min 0 W/m 13,1 C 10,1 C 17,4 km/h (3 Bft)
08.07.2008 02:30 14,6 C 90 % 999,5 hPa 0,0 l/m 16,9 km/h (3 Bft) W-SW 250 0 min 0 W/m 13,0 C 10,1 C 16,9 km/h (3 Bft)
08.07.2008 02:35 14,7 C 90 % 999,5 hPa 0,0 l/m 16,0 km/h (3 Bft) W 265 0 min 0 W/m 13,1 C 10,5 C 16,0 km/h (3 Bft)
08.07.2008 02:40 14,7 C 90 % 999,5 hPa 0,0 l/m 18,4 km/h (3 Bft) W-SW 250 0 min 0 W/m 13,1 C 9,8 C 18,4 km/h (3 Bft)
08.07.2008 02:45 14,7 C 90 % 999,5 hPa 0,0 l/m 21,1 km/h (4 Bft) W-SW 255 0 min 0 W/m 13,1 C 9,1 C 21,1 km/h (4 Bft)
08.07.2008 02:50 14,7 C 90 % 999,5 hPa 0,0 l/m 25,4 km/h (4 Bft) W 260 0 min 0 W/m 13,1 C 8,1 C 25,4 km/h (4 Bft)
08.07.2008 02:55 14,7 C 90 % 999,5 hPa 0,0 l/m 22,7 km/h (4 Bft) W 260 0 min 0 W/m 13,1 C 8,7 C 22,7 km/h (4 Bft)
08.07.2008 03:00 14,7 C 90 % 999,5 hPa 0,0 l/m 16,6 km/h (3 Bft) W 260 0 min 0 W/m 13,1 C 10,3 C 16,6 km/h (3 Bft)
08.07.2008 03:05 14,8 C 90 % 999,5 hPa 0,0 l/m 17,6 km/h (3 Bft) W-SW 255 0 min 0 W/m 13,2 C 10,1 C 17,6 km/h (3 Bft)
08.07.2008 03:10 14,8 C 90 % 999,5 hPa 0,0 l/m 14,3 km/h (3 Bft) W-SW 240 0 min 0 W/m 13,2 C 11,2 C 14,3 km/h (3 Bft)
08.07.2008 03:15 14,8 C 90 % 999,5 hPa 0,0 l/m 15,5 km/h (3 Bft) W-SW 245 0 min 0 W/m 13,2 C 10,8 C 15,5 km/h (3 Bft)
08.07.2008 03:20 14,8 C 90 % 999,5 hPa 0,0 l/m 20,5 km/h (4 Bft) W-SW 255 0 min 0 W/m 13,2 C 9,4 C 20,5 km/h (4 Bft)
08.07.2008 03:25 14,8 C 90 % 999,5 hPa 0,0 l/m 16,4 km/h (3 Bft) W-SW 245 0 min 0 W/m 13,2 C 10,5 C 16,4 km/h (3 Bft)
08.07.2008 03:30 14,8 C 90 % 999,5 hPa 0,0 l/m 20,1 km/h (4 Bft) W 260 0 min 0 W/m 13,2 C 9,5 C 20,1 km/h (4 Bft)
08.07.2008 03:35 14,8 C 90 % 999,5 hPa 0,3 l/m 18,3 km/h (3 Bft) W 260 0 min 0 W/m 13,2 C 9,9 C 18,3 km/h (3 Bft)
08.07.2008 03:40 14,8 C 90 % 999,5 hPa 0,0 l/m 22,1 km/h (4 Bft) W-SW 250 0 min 0 W/m 13,2 C 9,0 C 22,1 km/h (4 Bft)
08.07.2008 03:45 14,7 C 90 % 999,5 hPa 0,0 l/m 19,5 km/h (3 Bft) W 260 0 min 0 W/m 13,1 C 9,5 C 19,5 km/h (3 Bft)
08.07.2008 03:50 14,8 C 90 % 999,5 hPa 0,0 l/m 15,8 km/h (3 Bft) W 260 0 min 0 W/m 13,2 C 10,7 C 15,8 km/h (3 Bft)
08.07.2008 03:55 14,8 C 91 % 999,5 hPa 0,0 l/m 18,3 km/h (3 Bft) W-SW 255 0 min 0 W/m 13,3 C 9,9 C 18,3 km/h (3 Bft)
08.07.2008 04:00 14,8 C 91 % 999,5 hPa 0,0 l/m 15,0 km/h (3 Bft) W 265 0 min 0 W/m 13,3 C 10,9 C 15,0 km/h (3 Bft)
08.07.2008 04:05 14,8 C 91 % 999,5 hPa 0,0 l/m 14,6 km/h (3 Bft) W 260 0 min 0 W/m 13,3 C 11,1 C 14,6 km/h (3 Bft)
08.07.2008 04:10 14,8 C 91 % 999,5 hPa 0,0 l/m 17,1 km/h (3 Bft) W-SW 250 0 min 0 W/m 13,3 C 10,3 C 17,1 km/h (3 Bft)
08.07.2008 04:15 14,8 C 91 % 999,5 hPa 0,0 l/m 19,1 km/h (3 Bft) W-SW 255 0 min 0 W/m 13,3 C 9,7 C 19,1 km/h (3 Bft)
08.07.2008 04:20 14,8 C 91 % 999,5 hPa 0,0 l/m 22,8 km/h (4 Bft) W 260 0 min 0 W/m 13,3 C 8,8 C 22,8 km/h (4 Bft)
08.07.2008 04:25 14,8 C 91 % 999,5 hPa 0,0 l/m 24,8 km/h (4 Bft) W 260 0 min 0 W/m 13,3 C 8,4 C 24,8 km/h (4 Bft)
08.07.2008 04:30 14,8 C 91 % 999,5 hPa 0,0 l/m 23,8 km/h (4 Bft) W 260 0 min 0 W/m 13,3 C 8,6 C 23,8 km/h (4 Bft)
08.07.2008 04:35 14,7 C 91 % 999,5 hPa 0,0 l/m 29,3 km/h (5 Bft) W 265 0 min 0 W/m 13,2 C 7,4 C 29,3 km/h (5 Bft)
08.07.2008 04:40 14,7 C 91 % 999,5 hPa 0,0 l/m 28,2 km/h (5 Bft) W 260 0 min 0 W/m 13,2 C 7,6 C 28,2 km/h (5 Bft)
08.07.2008 04:45 14,7 C 91 % 999,5 hPa 0,0 l/m 22,8 km/h (4 Bft) W 260 0 min 0 W/m 13,2 C 8,7 C 22,8 km/h (4 Bft)
08.07.2008 04:50 14,6 C 91 % 999,5 hPa 0,0 l/m 17,1 km/h (3 Bft) W 260 0 min 0 W/m 13,1 C 10,0 C 17,1 km/h (3 Bft)
08.07.2008 04:55 14,6 C 91 % 999,5 hPa 0,0 l/m 23,6 km/h (4 Bft) W 265 0 min 0 W/m 13,1 C 8,4 C 23,6 km/h (4 Bft)
08.07.2008 05:00 14,7 C 91 % 999,5 hPa 0,0 l/m 22,5 km/h (4 Bft) W 270 0 min 0 W/m 13,2 C 8,7 C 22,5 km/h (4 Bft)
08.07.2008 05:05 14,7 C 91 % 999,5 hPa 0,0 l/m 26,5 km/h (4 Bft) W 270 0 min 0 W/m 13,2 C 7,9 C 26,5 km/h (4 Bft)
08.07.2008 05:10 14,8 C 90 % 999,5 hPa 0,0 l/m 26,8 km/h (4 Bft) W 265 0 min 0 W/m 13,2 C 8,0 C 26,8 km/h (4 Bft)
08.07.2008 05:15 14,9 C 91 % 999,5 hPa 0,0 l/m 23,0 km/h (4 Bft) W 275 0 min 0 W/m 13,4 C 8,9 C 23,0 km/h (4 Bft)
08.07.2008 05:19 15,0 C 89 % 999,5 hPa 0,0 l/m 33,8 km/h (5 Bft) W 270 0 min 0 W/m 13,2 C 7,1 C 33,8 km/h (5 Bft)
08.07.2008 05:25 15,0 C 89 % 999,5 hPa 0,0 l/m 33,8 km/h (5 Bft) W 270 0 min 0 W/m 13,2 C 7,1 C 33,8 km/h (5 Bft)
08.07.2008 05:30 15,0 C 89 % 999,5 hPa 0,0 l/m 32,1 km/h (5 Bft) W 270 0 min 0 W/m 13,2 C 7,4 C 32,1 km/h (5 Bft)
08.07.2008 05:35 15,0 C 89 % 999,5 hPa 0,0 l/m 38,9 km/h (6 Bft) W 275 0 min 0 W/m 13,2 C 6,4 C 38,9 km/h (6 Bft)
08.07.2008 05:40 15,0 C 89 % 999,5 hPa 0,0 l/m 36,0 km/h (5 Bft) W 275 0 min 0 W/m 13,2 C 6,8 C 36,0 km/h (5 Bft)
08.07.2008 05:45 15,0 C 89 % 999,5 hPa 0,0 l/m 34,3 km/h (5 Bft) W 270 0 min 0 W/m 13,2 C 7,0 C 34,3 km/h (5 Bft)
08.07.2008 05:50 15,0 C 89 % 999,5 hPa 0,0 l/m 26,1 km/h (4 Bft) W 270 0 min 0 W/m 13,2 C 8,4 C 26,1 km/h (4 Bft)
08.07.2008 05:55 15,0 C 89 % 999,5 hPa 0,0 l/m 33,2 km/h (5 Bft) W 270 0 min 0 W/m 13,2 C 7,2 C 33,2 km/h (5 Bft)
08.07.2008 06:00 15,0 C 89 % 999,5 hPa 0,0 l/m 33,1 km/h (5 Bft) W 270 0 min 0 W/m 13,2 C 7,2 C 33,1 km/h (5 Bft)
08.07.2008 06:05 15,0 C 89 % 999,5 hPa 0,0 l/m 31,2 km/h (5 Bft) W 270 0 min 0 W/m 13,2 C 7,5 C 31,2 km/h (5 Bft)
08.07.2008 06:10 15,0 C 88 % 999,5 hPa 0,0 l/m 30,3 km/h (5 Bft) W 265 0 min 0 W/m 13,0 C 7,6 C 30,3 km/h (5 Bft)
08.07.2008 06:15 15,0 C 89 % 999,5 hPa 0,0 l/m 34,1 km/h (5 Bft) W 270 0 min 0 W/m 13,2 C 7,1 C 34,1 km/h (5 Bft)
08.07.2008 06:20 15,1 C 88 % 999,5 hPa 0,0 l/m 33,6 km/h (5 Bft) W 275 0 min 0 W/m 13,1 C 7,3 C 33,6 km/h (5 Bft)
08.07.2008 06:25 15,3 C 87 % 999,5 hPa 0,0 l/m 32,7 km/h (5 Bft) W 275 0 min 0 W/m 13,1 C 7,7 C 32,7 km/h (5 Bft)
08.07.2008 06:30 15,4 C 87 % 999,5 hPa 0,0 l/m 41,3 km/h (6 Bft) W 270 0 min 0 W/m 13,2 C 6,8 C 41,3 km/h (6 Bft)
08.07.2008 06:35 15,3 C 87 % 999,5 hPa 0,0 l/m 37,1 km/h (5 Bft) W 270 0 min 0 W/m 13,1 C 7,1 C 37,1 km/h (5 Bft)
08.07.2008 06:40 15,1 C 88 % 999,5 hPa 0,3 l/m 35,2 km/h (5 Bft) W 270 0 min 0 W/m 13,1 C 7,0 C 35,2 km/h (5 Bft)
08.07.2008 06:45 15,0 C 89 % 999,5 hPa 0,0 l/m 31,9 km/h (5 Bft) W 270 0 min 0 W/m 13,2 C 7,4 C 31,9 km/h (5 Bft)
08.07.2008 06:50 15,0 C 89 % 999,5 hPa 0,0 l/m 33,9 km/h (5 Bft) W 270 0 min 0 W/m 13,2 C 7,1 C 33,9 km/h (5 Bft)
08.07.2008 06:55 15,0 C 90 % 999,5 hPa 0,0 l/m 33,9 km/h (5 Bft) W 270 0 min 0 W/m 13,4 C 7,1 C 33,9 km/h (5 Bft)
08.07.2008 07:00 14,9 C 91 % 999,5 hPa 0,0 l/m 25,5 km/h (4 Bft) W 270 0 min 0 W/m 13,4 C 8,4 C 25,5 km/h (4 Bft)
08.07.2008 07:05 14,8 C 91 % 999,5 hPa 0,0 l/m 26,3 km/h (4 Bft) W 270 0 min 0 W/m 13,3 C 8,1 C 26,3 km/h (4 Bft)
08.07.2008 07:10 14,9 C 91 % 999,5 hPa 0,0 l/m 30,5 km/h (5 Bft) W 270 0 min 0 W/m 13,4 C 7,5 C 30,5 km/h (5 Bft)
08.07.2008 07:15 15,0 C 90 % 999,5 hPa 0,0 l/m 29,0 km/h (5 Bft) W 275 0 min 0 W/m 13,4 C 7,9 C 29,0 km/h (5 Bft)
08.07.2008 07:20 15,0 C 90 % 999,5 hPa 0,0 l/m 29,8 km/h (5 Bft) W 275 0 min 0 W/m 13,4 C 7,7 C 29,8 km/h (5 Bft)
08.07.2008 07:25 15,0 C 90 % 1000,5 hPa 0,0 l/m 25,0 km/h (4 Bft) W 275 0 min 0 W/m 13,4 C 8,6 C 25,0 km/h (4 Bft)
08.07.2008 07:30 15,0 C 89 % 1000,5 hPa 0,0 l/m 29,4 km/h (5 Bft) W 275 0 min 0 W/m 13,2 C 7,8 C 29,4 km/h (5 Bft)
08.07.2008 07:35 15,0 C 89 % 1000,5 hPa 0,0 l/m 30,5 km/h (5 Bft) W 270 0 min 0 W/m 13,2 C 7,6 C 30,5 km/h (5 Bft)
08.07.2008 07:40 15,0 C 89 % 1000,5 hPa 0,0 l/m 33,4 km/h (5 Bft) W 275 0 min 0 W/m 13,2 C 7,2 C 33,4 km/h (5 Bft)
08.07.2008 07:45 15,2 C 89 % 1000,5 hPa 0,0 l/m 33,6 km/h (5 Bft) W 275 0 min 0 W/m 13,4 C 7,4 C 33,6 km/h (5 Bft)
08.07.2008 07:50 15,6 C 89 % 1000,5 hPa 0,0 l/m 37,0 km/h (5 Bft) W 270 0 min 0 W/m 13,8 C 7,5 C 37,0 km/h (5 Bft)
08.07.2008 07:55 15,7 C 88 % 1000,5 hPa 0,0 l/m 40,3 km/h (6 Bft) W 270 0 min 0 W/m 13,7 C 7,3 C 40,3 km/h (6 Bft)
08.07.2008 08:00 15,6 C 87 % 1000,5 hPa 0,0 l/m 32,4 km/h (5 Bft) W 270 0 min 0 W/m 13,4 C 8,2 C 32,4 km/h (5 Bft)
08.07.2008 08:05 15,7 C 88 % 1000,5 hPa 0,0 l/m 37,5 km/h (5 Bft) W 275 0 min 0 W/m 13,7 C 7,6 C 37,5 km/h (5 Bft)
08.07.2008 08:10 15,9 C 87 % 1000,5 hPa 0,0 l/m 38,4 km/h (6 Bft) W 275 0 min 0 W/m 13,7 C 7,8 C 38,4 km/h (6 Bft)
08.07.2008 08:15 16,0 C 87 % 1000,5 hPa 0,0 l/m 30,3 km/h (5 Bft) W 275 0 min 0 W/m 13,8 C 9,0 C 30,3 km/h (5 Bft)
08.07.2008 08:20 16,0 C 85 % 1000,5 hPa 0,0 l/m 34,3 km/h (5 Bft) W 270 0 min 0 W/m 13,5 C 8,5 C 34,3 km/h (5 Bft)
08.07.2008 08:25 16,2 C 85 % 1000,5 hPa 0,0 l/m 34,8 km/h (5 Bft) W 275 0 min 0 W/m 13,7 C 8,7 C 34,8 km/h (5 Bft)
08.07.2008 08:30 16,0 C 86 % 1000,5 hPa 0,0 l/m 37,3 km/h (5 Bft) W 280 0 min 0 W/m 13,7 C 8,1 C 37,3 km/h (5 Bft)
08.07.2008 08:35 16,0 C 86 % 1000,5 hPa 0,0 l/m 37,7 km/h (5 Bft) W 275 0 min 0 W/m 13,7 C 8,0 C 37,7 km/h (5 Bft)
08.07.2008 08:40 16,1 C 85 % 1000,5 hPa 0,0 l/m 35,1 km/h (5 Bft) W 275 0 min 0 W/m 13,6 C 8,5 C 35,1 km/h (5 Bft)
08.07.2008 08:45 16,3 C 86 % 1000,5 hPa 0,0 l/m 25,5 km/h (4 Bft) W-NW 285 0 min 0 W/m 14,0 C 10,3 C 25,5 km/h (4 Bft)
08.07.2008 08:50 16,4 C 85 % 1000,5 hPa 0,0 l/m 30,8 km/h (5 Bft) W 270 0 min 0 W/m 13,9 C 9,5 C 30,8 km/h (5 Bft)
08.07.2008 08:55 16,1 C 84 % 1000,5 hPa 0,0 l/m 33,5 km/h (5 Bft) W 280 0 min 0 W/m 13,4 C 8,7 C 33,5 km/h (5 Bft)
08.07.2008 09:00 16,0 C 84 % 1000,5 hPa 0,0 l/m 34,1 km/h (5 Bft) W 275 0 min 0 W/m 13,3 C 8,5 C 34,1 km/h (5 Bft)
08.07.2008 09:05 16,2 C 84 % 1001,5 hPa 0,0 l/m 36,0 km/h (5 Bft) W-NW 295 0 min 0 W/m 13,5 C 8,5 C 36,0 km/h (5 Bft)
08.07.2008 09:10 16,2 C 83 % 1001,5 hPa 0,0 l/m 27,6 km/h (5 Bft) W 280 0 min 0 W/m 13,3 C 9,8 C 27,6 km/h (5 Bft)
08.07.2008 09:15 16,3 C 83 % 1001,5 hPa 0,0 l/m 32,6 km/h (5 Bft) W-NW 290 0 min 0 W/m 13,4 C 9,1 C 32,6 km/h (5 Bft)
08.07.2008 09:19 16,6 C 84 % 1001,5 hPa 0,0 l/m 30,5 km/h (5 Bft) W 280 0 min 0 W/m 13,9 C 9,9 C 30,5 km/h (5 Bft)
08.07.2008 09:25 16,6 C 83 % 1001,5 hPa 0,0 l/m 25,8 km/h (4 Bft) W 275 0 min 0 W/m 13,7 C 10,6 C 25,8 km/h (4 Bft)
08.07.2008 09:30 16,4 C 82 % 1001,5 hPa 0,0 l/m 30,6 km/h (5 Bft) W 275 0 min 0 W/m 13,3 C 9,6 C 30,6 km/h (5 Bft)
08.07.2008 09:35 16,4 C 82 % 1001,5 hPa 0,0 l/m 36,1 km/h (5 Bft) W-NW 290 0 min 0 W/m 13,3 C 8,8 C 36,1 km/h (5 Bft)
08.07.2008 09:40 16,4 C 83 % 1001,5 hPa 0,0 l/m 35,6 km/h (5 Bft) W-NW 285 0 min 0 W/m 13,5 C 8,9 C 35,6 km/h (5 Bft)
08.07.2008 09:45 16,2 C 82 % 1001,5 hPa 0,0 l/m 41,5 km/h (6 Bft) W 275 0 min 0 W/m 13,1 C 7,9 C 41,5 km/h (6 Bft)
08.07.2008 09:50 16,1 C 83 % 1001,5 hPa 0,0 l/m 30,7 km/h (5 Bft) W-NW 285 0 min 0 W/m 13,2 C 9,1 C 30,7 km/h (5 Bft)
08.07.2008 09:55 16,1 C 84 % 1001,5 hPa 0,0 l/m 31,7 km/h (5 Bft) W-NW 285 0 min 0 W/m 13,4 C 9,0 C 31,7 km/h (5 Bft)
08.07.2008 10:00 16,4 C 84 % 1001,5 hPa 0,0 l/m 25,9 km/h (4 Bft) W-NW 285 0 min 0 W/m 13,7 C 10,3 C 25,9 km/h (4 Bft)
08.07.2008 10:05 16,4 C 84 % 1001,5 hPa 0,0 l/m 30,0 km/h (5 Bft) W 270 0 min 0 W/m 13,7 C 9,7 C 30,0 km/h (5 Bft)
08.07.2008 10:10 16,4 C 84 % 1001,5 hPa 0,0 l/m 31,2 km/h (5 Bft) W 270 0 min 0 W/m 13,7 C 9,5 C 31,2 km/h (5 Bft)
08.07.2008 10:15 17,3 C 78 % 1001,5 hPa 0,0 l/m 32,9 km/h (5 Bft) W 280 0 min 0 W/m 13,4 C 10,5 C 32,9 km/h (5 Bft)
08.07.2008 10:20 17,5 C 78 % 1001,5 hPa 0,0 l/m 30,6 km/h (5 Bft) W 275 0 min 0 W/m 13,6 C 11,1 C 30,6 km/h (5 Bft)
08.07.2008 10:25 18,1 C 76 % 1001,5 hPa 0,0 l/m 35,8 km/h (5 Bft) W 280 0 min 0 W/m 13,8 C 11,3 C 35,8 km/h (5 Bft)
08.07.2008 10:30 18,1 C 74 % 1001,5 hPa 0,0 l/m 30,3 km/h (5 Bft) W 275 0 min 0 W/m 13,4 C 12,0 C 30,3 km/h (5 Bft)
08.07.2008 10:35 18,1 C 74 % 1001,5 hPa 0,0 l/m 32,5 km/h (5 Bft) W 275 0 min 0 W/m 13,4 C 11,7 C 32,5 km/h (5 Bft)
08.07.2008 10:40 18,2 C 75 % 1001,5 hPa 0,0 l/m 33,5 km/h (5 Bft) W 275 0 min 0 W/m 13,7 C 11,7 C 33,5 km/h (5 Bft)
08.07.2008 10:45 17,9 C 77 % 1001,5 hPa 0,0 l/m 22,8 km/h (4 Bft) W-NW 285 0 min 0 W/m 13,8 C 12,9 C 22,8 km/h (4 Bft)
08.07.2008 10:50 18,1 C 77 % 1001,5 hPa 0,0 l/m 25,6 km/h (4 Bft) W 275 0 min 0 W/m 14,0 C 12,7 C 25,6 km/h (4 Bft)
08.07.2008 10:55 18,1 C 77 % 1001,5 hPa 0,0 l/m 34,0 km/h (5 Bft) W 270 0 min 0 W/m 14,0 C 11,5 C 34,0 km/h (5 Bft)
08.07.2008 11:00 18,6 C 73 % 1002,5 hPa 0,0 l/m 27,5 km/h (5 Bft) W 275 0 min 0 W/m 13,7 C 13,1 C 27,5 km/h (5 Bft)
08.07.2008 11:05 18,2 C 75 % 1001,5 hPa 0,3 l/m 26,0 km/h (4 Bft) W 275 0 min 0 W/m 13,7 C 12,8 C 26,0 km/h (4 Bft)
08.07.2008 11:10 18,1 C 76 % 1001,5 hPa 0,0 l/m 26,8 km/h (4 Bft) W 275 0 min 0 W/m 13,8 C 12,5 C 26,8 km/h (4 Bft)
08.07.2008 11:15 18,1 C 77 % 1001,5 hPa 0,0 l/m 26,9 km/h (4 Bft) W-NW 285 0 min 0 W/m 14,0 C 12,5 C 26,9 km/h (4 Bft)
08.07.2008 11:20 18,3 C 74 % 1001,5 hPa 0,0 l/m 30,1 km/h (5 Bft) W 270 0 min 0 W/m 13,6 C 12,3 C 30,1 km/h (5 Bft)
08.07.2008 11:25 18,4 C 72 % 1002,5 hPa 0,0 l/m 33,4 km/h (5 Bft) W 275 0 min 0 W/m 13,3 C 12,0 C 33,4 km/h (5 Bft)
08.07.2008 11:30 18,6 C 72 % 1002,5 hPa 0,0 l/m 25,2 km/h (4 Bft) W 275 0 min 0 W/m 13,4 C 13,5 C 25,2 km/h (4 Bft)
08.07.2008 11:35 18,4 C 72 % 1002,5 hPa 0,0 l/m 28,8 km/h (5 Bft) W 280 0 min 0 W/m 13,3 C 12,6 C 28,8 km/h (5 Bft)
08.07.2008 11:40 18,8 C 72 % 1002,5 hPa 0,0 l/m 28,5 km/h (5 Bft) W 280 0 min 0 W/m 13,6 C 13,2 C 28,5 km/h (5 Bft)
08.07.2008 11:45 19,2 C 67 % 1002,5 hPa 0,0 l/m 26,9 km/h (4 Bft) W-NW 285 0 min 0 W/m 12,9 C 14,0 C 26,9 km/h (4 Bft)
08.07.2008 11:50 19,2 C 69 % 1002,5 hPa 0,0 l/m 22,2 km/h (4 Bft) W-NW 290 0 min 0 W/m 13,4 C 14,8 C 22,2 km/h (4 Bft)
08.07.2008 11:55 19,4 C 66 % 1002,5 hPa 0,0 l/m 29,5 km/h (5 Bft) W 275 0 min 0 W/m 12,9 C 13,9 C 29,5 km/h (5 Bft)
08.07.2008 12:00 19,5 C 66 % 1002,5 hPa 0,0 l/m 25,9 km/h (4 Bft) W-NW 290 0 min 0 W/m 13,0 C 14,6 C 25,9 km/h (4 Bft)
08.07.2008 12:05 19,4 C 67 % 1002,5 hPa 0,0 l/m 26,5 km/h (4 Bft) W-NW 285 0 min 0 W/m 13,1 C 14,3 C 26,5 km/h (4 Bft)
08.07.2008 12:10 18,8 C 66 % 1002,5 hPa 0,0 l/m 29,8 km/h (5 Bft) W-NW 295 0 min 0 W/m 12,3 C 13,1 C 29,8 km/h (5 Bft)
08.07.2008 12:14 18,3 C 70 % 1002,5 hPa 0,0 l/m 39,1 km/h (6 Bft) W 270 0 min 0 W/m 12,7 C 11,3 C 39,1 km/h (6 Bft)
08.07.2008 12:20 17,3 C 73 % 1002,5 hPa 0,0 l/m 34,0 km/h (5 Bft) W 275 0 min 0 W/m 12,4 C 10,4 C 34,0 km/h (5 Bft)
08.07.2008 12:25 17,3 C 73 % 1002,5 hPa 0,0 l/m 34,8 km/h (5 Bft) W 275 0 min 0 W/m 12,4 C 10,3 C 34,8 km/h (5 Bft)
08.07.2008 12:30 18,0 C 72 % 1002,5 hPa 0,0 l/m 34,8 km/h (5 Bft) W-NW 285 0 min 0 W/m 12,9 C 11,3 C 34,8 km/h (5 Bft)
08.07.2008 12:35 18,0 C 74 % 1002,5 hPa 0,0 l/m 32,5 km/h (5 Bft) W 280 0 min 0 W/m 13,3 C 11,6 C 32,5 km/h (5 Bft)
08.07.2008 12:40 18,4 C 74 % 1002,5 hPa 0,0 l/m 36,2 km/h (5 Bft) W 280 0 min 0 W/m 13,7 C 11,7 C 36,2 km/h (5 Bft)
08.07.2008 12:45 18,5 C 71 % 1002,5 hPa 0,0 l/m 29,5 km/h (5 Bft) W-NW 285 0 min 0 W/m 13,1 C 12,7 C 29,5 km/h (5 Bft)
08.07.2008 12:50 18,4 C 73 % 1002,5 hPa 0,0 l/m 23,0 km/h (4 Bft) W-NW 285 0 min 0 W/m 13,5 C 13,6 C 23,0 km/h (4 Bft)
08.07.2008 12:55 18,8 C 73 % 1002,5 hPa 0,0 l/m 26,3 km/h (4 Bft) W 280 0 min 0 W/m 13,9 C 13,6 C 26,3 km/h (4 Bft)
08.07.2008 13:00 18,8 C 73 % 1002,5 hPa 0,0 l/m 29,3 km/h (5 Bft) W 275 0 min 0 W/m 13,9 C 13,1 C 29,3 km/h (5 Bft)
08.07.2008 13:05 18,8 C 73 % 1002,5 hPa 0,0 l/m 28,5 km/h (5 Bft) W-NW 295 0 min 0 W/m 13,9 C 13,2 C 28,5 km/h (5 Bft)
08.07.2008 13:10 18,5 C 71 % 1002,5 hPa 0,0 l/m 24,8 km/h (4 Bft) W 280 0 min 0 W/m 13,1 C 13,4 C 24,8 km/h (4 Bft)
08.07.2008 13:15 18,1 C 70 % 1002,5 hPa 0,0 l/m 24,0 km/h (4 Bft) W-NW 290 0 min 0 W/m 12,5 C 13,0 C 24,0 km/h (4 Bft)
08.07.2008 13:20 18,1 C 71 % 1002,5 hPa 0,0 l/m 22,7 km/h (4 Bft) W-NW 295 0 min 0 W/m 12,8 C 13,2 C 22,7 km/h (4 Bft)
08.07.2008 13:25 18,7 C 72 % 1002,5 hPa 0,0 l/m 25,6 km/h (4 Bft) W-NW 285 0 min 0 W/m 13,5 C 13,5 C 25,6 km/h (4 Bft)
08.07.2008 13:30 19,1 C 71 % 1002,5 hPa 0,0 l/m 26,8 km/h (4 Bft) W 280 0 min 0 W/m 13,7 C 13,9 C 26,8 km/h (4 Bft)
08.07.2008 13:35 19,6 C 68 % 1002,5 hPa 0,0 l/m 24,8 km/h (4 Bft) W-NW 285 0 min 0 W/m 13,5 C 14,9 C 24,8 km/h (4 Bft)
08.07.2008 13:41 19,5 C 69 % 1002,5 hPa 0,0 l/m 31,7 km/h (5 Bft) W 275 0 min 0 W/m 13,7 C 13,8 C 31,7 km/h (5 Bft)
08.07.2008 13:46 19,5 C 69 % 1002,5 hPa 0,0 l/m 30,6 km/h (5 Bft) W 280 0 min 0 W/m 13,7 C 13,9 C 30,6 km/h (5 Bft)
08.07.2008 13:51 19,4 C 71 % 1002,5 hPa 0,0 l/m 27,3 km/h (5 Bft) W-NW 290 0 min 0 W/m 14,0 C 14,2 C 27,3 km/h (5 Bft)
08.07.2008 13:55 19,4 C 71 % 1002,5 hPa 0,0 l/m 22,5 km/h (4 Bft) W-NW 285 0 min 0 W/m 14,0 C 15,0 C 22,5 km/h (4 Bft)
08.07.2008 14:00 19,1 C 71 % 1002,5 hPa 0,0 l/m 26,8 km/h (4 Bft) W 280 0 min 0 W/m 13,7 C 13,9 C 26,8 km/h (4 Bft)
08.07.2008 14:05 19,8 C 69 % 1002,5 hPa 0,0 l/m 25,8 km/h (4 Bft) W-NW 290 0 min 0 W/m 13,9 C 15,0 C 25,8 km/h (4 Bft)
08.07.2008 14:10 20,2 C 68 % 1002,5 hPa 0,0 l/m 26,1 km/h (4 Bft) W-NW 295 0 min 0 W/m 14,1 C 15,5 C 26,1 km/h (4 Bft)
08.07.2008 14:15 20,5 C 64 % 1002,5 hPa 0,0 l/m 26,1 km/h (4 Bft) W 270 0 min 0 W/m 13,5 C 15,9 C 26,1 km/h (4 Bft)
08.07.2008 14:20 20,3 C 65 % 1002,5 hPa 0,0 l/m 29,8 km/h (5 Bft) W-NW 300 0 min 0 W/m 13,5 C 15,2 C 29,8 km/h (5 Bft)
08.07.2008 14:25 20,3 C 65 % 1002,5 hPa 0,0 l/m 25,2 km/h (4 Bft) NW 305 0 min 0 W/m 13,5 C 15,8 C 25,2 km/h (4 Bft)
08.07.2008 14:30 20,1 C 66 % 1002,5 hPa 0,0 l/m 20,3 km/h (4 Bft) W-NW 285 0 min 0 W/m 13,5 C 16,3 C 20,3 km/h (4 Bft)
08.07.2008 14:36 19,9 C 68 % 1002,5 hPa 0,0 l/m 18,0 km/h (3 Bft) W-NW 300 0 min 0 W/m 13,8 C 16,5 C 18,0 km/h (3 Bft)
08.07.2008 14:41 19,4 C 68 % 1002,5 hPa 0,0 l/m 19,8 km/h (3 Bft) NW 325 0 min 0 W/m 13,3 C 15,5 C 19,8 km/h (3 Bft)
08.07.2008 14:46 19,1 C 73 % 1003,5 hPa 0,3 l/m 21,7 km/h (4 Bft) NW 305 0 min 0 W/m 14,1 C 14,7 C 21,7 km/h (4 Bft)
08.07.2008 14:51 17,0 C 80 % 1003,5 hPa 0,6 l/m 25,7 km/h (4 Bft) W 275 0 min 0 W/m 13,5 C 11,2 C 25,7 km/h (4 Bft)
08.07.2008 14:55 16,1 C 85 % 1003,5 hPa 0,3 l/m 24,8 km/h (4 Bft) W 265 0 min 0 W/m 13,6 C 10,1 C 24,8 km/h (4 Bft)
08.07.2008 15:00 16,0 C 86 % 1003,5 hPa 0,0 l/m 22,0 km/h (4 Bft) W 270 0 min 0 W/m 13,7 C 10,6 C 22,0 km/h (4 Bft)
08.07.2008 15:05 16,2 C 88 % 1003,5 hPa 0,0 l/m 18,1 km/h (3 Bft) W 275 0 min 0 W/m 14,2 C 11,8 C 18,1 km/h (3 Bft)
08.07.2008 15:10 16,4 C 86 % 1003,5 hPa 0,0 l/m 9,6 km/h (2 Bft) W 270 0 min 0 W/m 14,1 C 14,8 C 9,6 km/h (2 Bft)
08.07.2008 15:15 16,4 C 85 % 1003,5 hPa 0,0 l/m 9,8 km/h (2 Bft) W 270 0 min 0 W/m 13,9 C 14,7 C 9,8 km/h (2 Bft)
08.07.2008 15:20 16,6 C 85 % 1003,5 hPa 0,6 l/m 13,8 km/h (3 Bft) W-NW 300 0 min 0 W/m 14,1 C 13,5 C 13,8 km/h (3 Bft)
08.07.2008 15:25 16,2 C 82 % 1003,5 hPa 0,0 l/m 22,0 km/h (4 Bft) W-NW 290 0 min 0 W/m 13,1 C 10,8 C 22,0 km/h (4 Bft)
08.07.2008 15:31 16,2 C 83 % 1003,5 hPa 0,3 l/m 15,6 km/h (3 Bft) W-NW 295 0 min 0 W/m 13,3 C 12,5 C 15,6 km/h (3 Bft)
08.07.2008 15:36 16,2 C 83 % 1003,5 hPa 0,0 l/m 15,9 km/h (3 Bft) W-NW 285 0 min 0 W/m 13,3 C 12,4 C 15,9 km/h (3 Bft)
08.07.2008 15:41 16,5 C 85 % 1003,5 hPa 0,0 l/m 10,0 km/h (2 Bft) W 270 0 min 0 W/m 14,0 C 14,8 C 10,0 km/h (2 Bft)
08.07.2008 15:46 17,0 C 84 % 1003,5 hPa 0,0 l/m 14,6 km/h (3 Bft) W 270 0 min 0 W/m 14,3 C 13,7 C 14,6 km/h (3 Bft)
08.07.2008 15:51 17,2 C 80 % 1003,5 hPa 0,0 l/m 19,1 km/h (3 Bft) W 265 0 min 0 W/m 13,7 C 12,8 C 19,1 km/h (3 Bft)
08.07.2008 15:55 17,6 C 82 % 1003,5 hPa 0,0 l/m 16,0 km/h (3 Bft) W 260 0 min 0 W/m 14,5 C 14,1 C 16,0 km/h (3 Bft)
08.07.2008 16:00 17,8 C 80 % 1003,5 hPa 0,0 l/m 18,6 km/h (3 Bft) W 270 0 min 0 W/m 14,3 C 13,7 C 18,6 km/h (3 Bft)
08.07.2008 16:05 17,7 C 81 % 1003,5 hPa 0,0 l/m 16,9 km/h (3 Bft) W 275 0 min 0 W/m 14,4 C 14,0 C 16,9 km/h (3 Bft)
08.07.2008 16:10 17,4 C 79 % 1003,5 hPa 0,0 l/m 19,1 km/h (3 Bft) W 265 0 min 0 W/m 13,7 C 13,0 C 19,1 km/h (3 Bft)
08.07.2008 16:15 17,3 C 78 % 1003,5 hPa 0,0 l/m 22,6 km/h (4 Bft) W 265 0 min 0 W/m 13,4 C 12,2 C 22,6 km/h (4 Bft)
08.07.2008 16:21 17,3 C 82 % 1003,5 hPa 0,0 l/m 18,6 km/h (3 Bft) W 265 0 min 0 W/m 14,2 C 13,0 C 18,6 km/h (3 Bft)
08.07.2008 16:26 17,1 C 81 % 1003,5 hPa 0,0 l/m 20,8 km/h (4 Bft) W 270 0 min 0 W/m 13,8 C 12,3 C 20,8 km/h (4 Bft)
08.07.2008 16:31 16,7 C 83 % 1003,5 hPa 0,0 l/m 20,0 km/h (4 Bft) W 265 0 min 0 W/m 13,8 C 11,9 C 20,0 km/h (4 Bft)
08.07.2008 16:36 16,6 C 84 % 1003,5 hPa 0,9 l/m 27,3 km/h (5 Bft) W 280 0 min 0 W/m 13,9 C 10,4 C 27,3 km/h (5 Bft)
08.07.2008 16:41 15,6 C 84 % 1004,5 hPa 1,5 l/m 31,1 km/h (5 Bft) NW 305 0 min 0 W/m 12,9 C 8,4 C 31,1 km/h (5 Bft)
08.07.2008 16:46 15,0 C 87 % 1004,5 hPa 0,3 l/m 32,6 km/h (5 Bft) NW 310 0 min 0 W/m 12,9 C 7,3 C 32,6 km/h (5 Bft)
08.07.2008 16:50 14,6 C 85 % 1004,5 hPa 0,3 l/m 26,3 km/h (4 Bft) W-NW 295 0 min 0 W/m 12,1 C 7,8 C 26,3 km/h (4 Bft)
08.07.2008 16:55 14,5 C 86 % 1004,5 hPa 0,0 l/m 21,1 km/h (4 Bft) W-NW 295 0 min 0 W/m 12,2 C 8,8 C 21,1 km/h (4 Bft)
08.07.2008 17:00 14,5 C 88 % 1004,5 hPa 0,3 l/m 17,0 km/h (3 Bft) W-NW 300 0 min 0 W/m 12,5 C 9,9 C 17,0 km/h (3 Bft)
08.07.2008 17:05 14,5 C 89 % 1004,5 hPa 0,0 l/m 22,8 km/h (4 Bft) W-NW 285 0 min 0 W/m 12,7 C 8,4 C 22,8 km/h (4 Bft)
08.07.2008 17:10 14,5 C 89 % 1004,5 hPa 0,3 l/m 19,9 km/h (4 Bft) W 275 0 min 0 W/m 12,7 C 9,1 C 19,9 km/h (4 Bft)
08.07.2008 17:16 14,6 C 90 % 1004,5 hPa 0,3 l/m 14,8 km/h (3 Bft) W 265 0 min 0 W/m 13,0 C 10,8 C 14,8 km/h (3 Bft)
08.07.2008 17:21 14,7 C 90 % 1004,5 hPa 0,0 l/m 10,1 km/h (2 Bft) W 275 0 min 0 W/m 13,1 C 12,7 C 10,1 km/h (2 Bft)
08.07.2008 17:26 15,0 C 90 % 1004,5 hPa 0,0 l/m 9,8 km/h (2 Bft) W-NW 285 0 min 0 W/m 13,4 C 13,2 C 9,8 km/h (2 Bft)
08.07.2008 17:31 15,0 C 91 % 1004,5 hPa 0,0 l/m 9,7 km/h (2 Bft) W 280 0 min 0 W/m 13,5 C 13,3 C 9,7 km/h (2 Bft)
08.07.2008 17:36 15,2 C 90 % 1004,5 hPa 0,0 l/m 15,7 km/h (3 Bft) W-NW 300 0 min 0 W/m 13,6 C 11,2 C 15,7 km/h (3 Bft)
08.07.2008 17:41 15,6 C 90 % 1004,5 hPa 0,0 l/m 21,3 km/h (4 Bft) W-NW 295 0 min 0 W/m 14,0 C 10,2 C 21,3 km/h (4 Bft)
08.07.2008 17:45 15,8 C 90 % 1004,5 hPa 0,0 l/m 19,3 km/h (3 Bft) W-NW 300 0 min 0 W/m 14,2 C 11,0 C 19,3 km/h (3 Bft)
08.07.2008 17:50 16,4 C 89 % 1004,5 hPa 0,0 l/m 15,5 km/h (3 Bft) W-NW 295 0 min 0 W/m 14,6 C 12,7 C 15,5 km/h (3 Bft)
08.07.2008 17:56 16,4 C 87 % 1004,5 hPa 0,0 l/m 19,0 km/h (3 Bft) W-NW 300 0 min 0 W/m 14,2 C 11,8 C 19,0 km/h (3 Bft)
08.07.2008 18:01 16,4 C 86 % 1004,5 hPa 0,0 l/m 19,6 km/h (3 Bft) W-NW 285 0 min 0 W/m 14,1 C 11,6 C 19,6 km/h (3 Bft)
08.07.2008 18:06 16,4 C 86 % 1004,5 hPa 0,0 l/m 22,7 km/h (4 Bft) NW 305 0 min 0 W/m 14,1 C 11,0 C 22,7 km/h (4 Bft)
08.07.2008 18:11 16,3 C 85 % 1004,5 hPa 0,0 l/m 24,5 km/h (4 Bft) NW 305 0 min 0 W/m 13,8 C 10,5 C 24,5 km/h (4 Bft)
08.07.2008 18:16 16,3 C 86 % 1004,5 hPa 0,0 l/m 21,3 km/h (4 Bft) NW 305 0 min 0 W/m 14,0 C 11,1 C 21,3 km/h (4 Bft)
08.07.2008 18:21 15,9 C 77 % 1004,5 hPa 0,0 l/m 16,8 km/h (3 Bft) W-NW 295 0 min 0 W/m 11,9 C 11,7 C 16,8 km/h (3 Bft)
08.07.2008 18:26 16,0 C 80 % 1004,5 hPa 0,0 l/m 20,1 km/h (4 Bft) NW 305 0 min 0 W/m 12,5 C 11,0 C 20,1 km/h (4 Bft)
08.07.2008 18:31 15,9 C 80 % 1004,5 hPa 0,0 l/m 20,3 km/h (4 Bft) NW 315 0 min 0 W/m 12,5 C 10,8 C 20,3 km/h (4 Bft)
08.07.2008 18:36 15,8 C 78 % 1004,5 hPa 0,0 l/m 22,3 km/h (4 Bft) NW 320 0 min 0 W/m 12,0 C 10,2 C 22,3 km/h (4 Bft)
08.07.2008 18:41 16,0 C 80 % 1004,5 hPa 0,0 l/m 22,8 km/h (4 Bft) NW 310 0 min 0 W/m 12,5 C 10,4 C 22,8 km/h (4 Bft)
08.07.2008 18:46 16,2 C 78 % 1004,5 hPa 0,0 l/m 17,8 km/h (3 Bft) NW 320 0 min 0 W/m 12,4 C 11,8 C 17,8 km/h (3 Bft)
08.07.2008 18:51 16,2 C 77 % 1004,5 hPa 0,0 l/m 22,2 km/h (4 Bft) NW 310 0 min 0 W/m 12,2 C 10,8 C 22,2 km/h (4 Bft)
08.07.2008 18:56 16,3 C 77 % 1004,5 hPa 0,0 l/m 19,7 km/h (3 Bft) NW 305 0 min 0 W/m 12,3 C 11,5 C 19,7 km/h (3 Bft)
08.07.2008 19:01 16,4 C 76 % 1004,5 hPa 0,0 l/m 23,8 km/h (4 Bft) W-NW 300 0 min 0 W/m 12,2 C 10,7 C 23,8 km/h (4 Bft)
08.07.2008 19:06 16,4 C 78 % 1004,5 hPa 0,0 l/m 19,5 km/h (3 Bft) NW 320 0 min 0 W/m 12,6 C 11,7 C 19,5 km/h (3 Bft)
08.07.2008 19:11 16,7 C 76 % 1004,5 hPa 0,0 l/m 15,9 km/h (3 Bft) NW 315 0 min 0 W/m 12,4 C 13,0 C 15,9 km/h (3 Bft)
08.07.2008 19:16 16,8 C 72 % 1004,5 hPa 0,0 l/m 24,0 km/h (4 Bft) NW 305 0 min 0 W/m 11,7 C 11,2 C 24,0 km/h (4 Bft)
08.07.2008 19:21 16,6 C 72 % 1004,5 hPa 0,0 l/m 21,1 km/h (4 Bft) W-NW 290 0 min 0 W/m 11,5 C 11,6 C 21,1 km/h (4 Bft)
08.07.2008 19:26 16,7 C 72 % 1004,5 hPa 0,0 l/m 18,0 km/h (3 Bft) NW 305 0 min 0 W/m 11,6 C 12,4 C 18,0 km/h (3 Bft)
08.07.2008 19:31 16,6 C 73 % 1004,5 hPa 0,0 l/m 21,6 km/h (4 Bft) W-NW 300 0 min 0 W/m 11,7 C 11,5 C 21,6 km/h (4 Bft)
08.07.2008 19:37 16,5 C 74 % 1004,5 hPa 0,0 l/m 16,6 km/h (3 Bft) NW 310 0 min 0 W/m 11,8 C 12,5 C 16,6 km/h (3 Bft)
08.07.2008 19:41 16,5 C 75 % 1005,5 hPa 0,0 l/m 19,7 km/h (3 Bft) NW 320 0 min 0 W/m 12,1 C 11,8 C 19,7 km/h (3 Bft)
08.07.2008 19:46 16,6 C 73 % 1004,5 hPa 0,0 l/m 17,8 km/h (3 Bft) NW 310 0 min 0 W/m 11,7 C 12,4 C 17,8 km/h (3 Bft)
08.07.2008 19:51 16,5 C 73 % 1004,5 hPa 0,0 l/m 22,9 km/h (4 Bft) NW 325 0 min 0 W/m 11,6 C 11,1 C 22,9 km/h (4 Bft)
08.07.2008 19:56 16,5 C 73 % 1004,5 hPa 0,0 l/m 18,5 km/h (3 Bft) W-NW 290 0 min 0 W/m 11,6 C 12,0 C 18,5 km/h (3 Bft)
08.07.2008 20:01 16,6 C 72 % 1004,5 hPa 0,0 l/m 25,3 km/h (4 Bft) NW 320 0 min 0 W/m 11,5 C 10,7 C 25,3 km/h (4 Bft)
08.07.2008 20:06 16,4 C 72 % 1005,5 hPa 0,0 l/m 22,9 km/h (4 Bft) W-NW 300 0 min 0 W/m 11,3 C 10,9 C 22,9 km/h (4 Bft)
08.07.2008 20:11 16,4 C 73 % 1005,5 hPa 0,0 l/m 24,8 km/h (4 Bft) NW 310 0 min 0 W/m 11,5 C 10,5 C 24,8 km/h (4 Bft)
08.07.2008 20:16 16,4 C 73 % 1005,5 hPa 0,0 l/m 19,0 km/h (3 Bft) W-NW 300 0 min 0 W/m 11,5 C 11,8 C 19,0 km/h (3 Bft)
08.07.2008 20:22 16,5 C 73 % 1005,5 hPa 0,0 l/m 18,6 km/h (3 Bft) NW 305 0 min 0 W/m 11,6 C 12,0 C 18,6 km/h (3 Bft)
08.07.2008 20:27 16,5 C 73 % 1005,5 hPa 0,0 l/m 28,2 km/h (5 Bft) NW 320 0 min 0 W/m 11,6 C 10,1 C 28,2 km/h (5 Bft)
08.07.2008 20:31 16,5 C 72 % 1005,5 hPa 0,0 l/m 20,8 km/h (4 Bft) W-NW 300 0 min 0 W/m 11,4 C 11,5 C 20,8 km/h (4 Bft)
08.07.2008 20:36 16,5 C 74 % 1005,5 hPa 0,0 l/m 18,6 km/h (3 Bft) NW 310 0 min 0 W/m 11,8 C 12,0 C 18,6 km/h (3 Bft)
08.07.2008 20:41 16,4 C 74 % 1005,5 hPa 0,0 l/m 24,5 km/h (4 Bft) NW 320 0 min 0 W/m 11,8 C 10,6 C 24,5 km/h (4 Bft)
08.07.2008 20:46 16,2 C 73 % 1005,5 hPa 0,0 l/m 23,9 km/h (4 Bft) NW 305 0 min 0 W/m 11,4 C 10,4 C 23,9 km/h (4 Bft)
08.07.2008 20:51 16,2 C 72 % 1005,5 hPa 0,0 l/m 26,4 km/h (4 Bft) NW 310 0 min 0 W/m 11,1 C 10,0 C 26,4 km/h (4 Bft)
08.07.2008 20:56 16,0 C 71 % 1005,5 hPa 0,0 l/m 22,0 km/h (4 Bft) NW 320 0 min 0 W/m 10,7 C 10,6 C 22,0 km/h (4 Bft)
08.07.2008 21:02 16,0 C 71 % 1005,5 hPa 0,0 l/m 22,5 km/h (4 Bft) NW 310 0 min 0 W/m 10,7 C 10,5 C 22,5 km/h (4 Bft)
08.07.2008 21:06 15,9 C 72 % 1005,5 hPa 0,0 l/m 26,0 km/h (4 Bft) W-NW 300 0 min 0 W/m 10,9 C 9,6 C 26,0 km/h (4 Bft)
08.07.2008 21:12 15,9 C 73 % 1005,5 hPa 0,0 l/m 23,0 km/h (4 Bft) NW 315 0 min 0 W/m 11,1 C 10,2 C 23,0 km/h (4 Bft)
08.07.2008 21:17 15,8 C 74 % 1005,5 hPa 0,0 l/m 27,2 km/h (5 Bft) NW 315 0 min 0 W/m 11,2 C 9,3 C 27,2 km/h (5 Bft)
08.07.2008 21:21 15,6 C 73 % 1005,5 hPa 0,0 l/m 22,9 km/h (4 Bft) W-NW 300 0 min 0 W/m 10,8 C 9,9 C 22,9 km/h (4 Bft)
08.07.2008 21:26 15,7 C 74 % 1005,5 hPa 0,0 l/m 22,9 km/h (4 Bft) W-NW 300 0 min 0 W/m 11,1 C 10,0 C 22,9 km/h (4 Bft)
08.07.2008 21:31 15,7 C 71 % 1005,5 hPa 0,0 l/m 24,9 km/h (4 Bft) NW 315 0 min 0 W/m 10,5 C 9,6 C 24,9 km/h (4 Bft)
08.07.2008 21:36 15,7 C 71 % 1005,5 hPa 0,0 l/m 23,8 km/h (4 Bft) NW 305 0 min 0 W/m 10,5 C 9,8 C 23,8 km/h (4 Bft)
08.07.2008 21:41 15,6 C 71 % 1005,5 hPa 0,0 l/m 19,8 km/h (3 Bft) W-NW 300 0 min 0 W/m 10,4 C 10,6 C 19,8 km/h (3 Bft)
08.07.2008 21:47 15,6 C 73 % 1005,5 hPa 0,0 l/m 20,0 km/h (4 Bft) W-NW 295 0 min 0 W/m 10,8 C 10,5 C 20,0 km/h (4 Bft)
08.07.2008 21:52 15,6 C 73 % 1005,5 hPa 0,0 l/m 21,0 km/h (4 Bft) NW 315 0 min 0 W/m 10,8 C 10,3 C 21,0 km/h (4 Bft)
08.07.2008 21:57 15,6 C 74 % 1005,5 hPa 0,0 l/m 24,6 km/h (4 Bft) NW 310 0 min 0 W/m 11,0 C 9,5 C 24,6 km/h (4 Bft)
08.07.2008 22:01 15,6 C 74 % 1005,5 hPa 0,0 l/m 21,6 km/h (4 Bft) NW 310 0 min 0 W/m 11,0 C 10,1 C 21,6 km/h (4 Bft)
08.07.2008 22:07 15,6 C 75 % 1005,5 hPa 0,3 l/m 26,5 km/h (4 Bft) W-NW 295 0 min 0 W/m 11,2 C 9,1 C 26,5 km/h (4 Bft)
08.07.2008 22:11 15,1 C 76 % 1005,5 hPa 0,0 l/m 20,8 km/h (4 Bft) W 275 0 min 0 W/m 10,9 C 9,7 C 20,8 km/h (4 Bft)
08.07.2008 22:16 14,8 C 78 % 1005,5 hPa 0,0 l/m 15,1 km/h (3 Bft) W 275 0 min 0 W/m 11,0 C 10,9 C 15,1 km/h (3 Bft)
08.07.2008 22:21 14,8 C 79 % 1005,5 hPa 0,0 l/m 19,1 km/h (3 Bft) NW 305 0 min 0 W/m 11,2 C 9,7 C 19,1 km/h (3 Bft)
08.07.2008 22:27 15,0 C 76 % 1005,5 hPa 0,0 l/m 21,3 km/h (4 Bft) NW 305 0 min 0 W/m 10,8 C 9,4 C 21,3 km/h (4 Bft)
08.07.2008 22:32 15,0 C 75 % 1005,5 hPa 0,0 l/m 18,3 km/h (3 Bft) W-NW 300 0 min 0 W/m 10,6 C 10,2 C 18,3 km/h (3 Bft)
08.07.2008 22:37 15,0 C 75 % 1005,5 hPa 0,0 l/m 22,1 km/h (4 Bft) W-NW 285 0 min 0 W/m 10,6 C 9,2 C 22,1 km/h (4 Bft)
08.07.2008 22:42 15,0 C 73 % 1006,5 hPa 0,0 l/m 24,0 km/h (4 Bft) W 270 0 min 0 W/m 10,2 C 8,8 C 24,0 km/h (4 Bft)
08.07.2008 22:47 15,0 C 72 % 1006,5 hPa 0,0 l/m 20,4 km/h (4 Bft) W 280 0 min 0 W/m 10,0 C 9,6 C 20,4 km/h (4 Bft)
08.07.2008 22:51 14,8 C 73 % 1006,5 hPa 0,0 l/m 16,5 km/h (3 Bft) W 270 0 min 0 W/m 10,0 C 10,5 C 16,5 km/h (3 Bft)
08.07.2008 22:56 14,7 C 74 % 1006,5 hPa 0,0 l/m 20,0 km/h (4 Bft) W 265 0 min 0 W/m 10,1 C 9,4 C 20,0 km/h (4 Bft)
08.07.2008 23:01 14,7 C 75 % 1006,5 hPa 0,0 l/m 20,7 km/h (4 Bft) W 275 0 min 0 W/m 10,3 C 9,2 C 20,7 km/h (4 Bft)
08.07.2008 23:06 14,6 C 76 % 1006,5 hPa 0,0 l/m 24,1 km/h (4 Bft) W 265 0 min 0 W/m 10,4 C 8,3 C 24,1 km/h (4 Bft)
08.07.2008 23:12 14,4 C 76 % 1006,5 hPa 0,0 l/m 20,3 km/h (4 Bft) W 270 0 min 0 W/m 10,2 C 8,9 C 20,3 km/h (4 Bft)
08.07.2008 23:17 14,3 C 76 % 1006,5 hPa 0,0 l/m 20,6 km/h (4 Bft) W 270 0 min 0 W/m 10,1 C 8,7 C 20,6 km/h (4 Bft)
08.07.2008 23:22 14,2 C 76 % 1006,5 hPa 0,0 l/m 26,1 km/h (4 Bft) W 265 0 min 0 W/m 10,0 C 7,3 C 26,1 km/h (4 Bft)
08.07.2008 23:27 14,2 C 77 % 1006,5 hPa 0,0 l/m 20,8 km/h (4 Bft) W 265 0 min 0 W/m 10,2 C 8,5 C 20,8 km/h (4 Bft)
08.07.2008 23:32 14,1 C 77 % 1006,5 hPa 0,0 l/m 22,3 km/h (4 Bft) W 270 0 min 0 W/m 10,1 C 8,0 C 22,3 km/h (4 Bft)
08.07.2008 23:36 14,2 C 79 % 1006,5 hPa 0,0 l/m 21,5 km/h (4 Bft) W 270 0 min 0 W/m 10,6 C 8,3 C 21,5 km/h (4 Bft)
08.07.2008 23:41 14,2 C 80 % 1006,5 hPa 0,0 l/m 24,7 km/h (4 Bft) W 270 0 min 0 W/m 10,8 C 7,6 C 24,7 km/h (4 Bft)
08.07.2008 23:47 14,2 C 79 % 1006,5 hPa 0,0 l/m 34,6 km/h (5 Bft) W 270 0 min 0 W/m 10,6 C 5,8 C 34,6 km/h (5 Bft)
08.07.2008 23:52 14,3 C 78 % 1006,5 hPa 0,0 l/m 30,1 km/h (5 Bft) W 280 0 min 0 W/m 10,5 C 6,7 C 30,1 km/h (5 Bft)
08.07.2008 23:57 14,1 C 75 % 1006,5 hPa 0,0 l/m 29,2 km/h (5 Bft) W 275 0 min 0 W/m 9,7 C 6,6 C 29,2 km/h (5 Bft)
_ Min-Zeit 23:32 14:15 01:00 - 15:10 - - - - 23:57 23:47 15:10
Minimum _ 14,1 C 64 % 999,5 hPa - 9,6 km/h (2 Bft) - - - - 9,7 C 5,8 C 9,6 km/h (2 Bft)
_ Max-Zeit 14:15 03:55 22:42 16:41 09:45 - - 00:00 00:00 17:50 14:36 09:45
Maximum _ 20,5 C 91 % 1006,5 hPa 1,5 l/m 41,5 km/h
W (6 Bft)
- - 0 min 0 W/m 14,6 C 16,5 C 41,5 km/h
W (6 Bft)
Durchschnitt _ 16,1 C 81 % 1002,3 hPa #7,8 l/m 24,0 km/h (4 Bft) W - #0 min. 0 W/m 12,8 C 10,5 C 24,0 km/h (4 Bft)
copyright by Holger Just